Vorticity
15 15 15 15 14 14 14 14 14 14 14 14 14 14 15 15 16 16 17 17 17 17 17 18 17 17 16 16 16 16 16 17 18 18 18 18 19 19 19 18 15 13 10 8 7 5 4 3 2 2 2 2 2 3 3 4 4 4 4 4 4 5 5 6 7 8 9 10 11
19 19 19 18 18 18 17 17 17 17 17 18 18 18 18 19 19 19 20 21 21 21 21 21 21 21 21 21 21 21 21 21 21 21 21 21 21 20 17 14 11 9 7 6 5 3 2 1 0 -0 0 1 1 2 3 4 4 3 3 4 5 5 6 7 8 10 10 11 11
21 21 21 21 20 20 20 20 20 20 20 20 20 20 20 20 21 21 22 22 22 23 23 24 24 24 24 23 23 23 23 23 22 22 21 21 19 17 14 10 8 7 6 4 3 1 1 -0 -0 -0 0 1 2 3 3 3 3 3 3 4 5 6 7 9 11 12 12 12 12
18 19 19 20 20 20 20 20 20 20 20 19 19 19 20 20 21 21 21 21 22 23 23 23 22 22 22 21 21 21 22 22 21 20 19 17 15 13 10 8 6 5 3 2 1 1 0 -0 0 1 1 2 3 3 3 3 3 3 4 5 6 8 10 12 13 13 13 11 11
14 15 15 16 17 17 17 18 18 18 18 18 18 18 19 19 19 19 19 20 20 19 19 18 18 18 18 17 17 16 16 16 16 15 13 12 10 8 6 5 3 2 2 2 1 1 1 1 1 2 2 3 3 3 3 3 4 5 7 8 10 12 13 14 15 14 12 9 9
11 12 12 13 14 14 15 16 16 16 16 16 17 17 17 17 17 17 17 16 15 15 14 14 13 13 12 12 11 11 10 9 8 8 7 5 4 3 3 3 2 2 2 2 2 2 2 3 3 3 3 4 4 4 5 6 7 9 10 12 13 14 15 16 15 14 11 9 9
10 10 11 11 12 12 13 14 14 14 15 16 16 16 15 14 15 15 14 13 13 13 12 11 10 9 9 8 8 7 7 6 5 4 4 3 3 3 3 3 3 3 3 3 3 4 4 5 5 6 7 7 8 9 10 11 12 13 13 13 15 15 16 16 16 15 14 13 13
10 10 11 11 11 12 12 12 13 13 14 15 15 14 13 13 13 13 13 13 13 13 12 12 11 10 10 10 10 9 9 9 8 7 7 7 7 7 7 7 7 7 7 8 8 9 9 10 10 11 11 12 12 14 15 15 15 15 15 15 15 16 16 16 16 16 17 17 18
10 11 11 11 11 12 12 11 12 12 12 13 13 12 12 12 12 12 12 13 13 13 13 13 13 13 13 13 13 13 13 13 13 13 13 13 13 13 13 13 13 13 14 14 14 14 14 14 14 14 14 15 15 16 17 16 15 15 15 16 16 16 15 15 15 17 18 18 18
10 11 11 11 12 12 11 11 12 12 12 11 11 11 11 11 11 11 11 11 11 11 11 11 12 12 12 13 13 13 14 14 15 15 15 15 15 15 16 16 16 16 16 16 15 15 15 14 14 14 14 15 15 15 15 14 13 13 14 15 15 14 14 15 15 17 18 19 19
11 11 11 11 11 11 11 11 11 12 12 11 10 10 10 10 9 9 9 8 8 8 8 9 9 9 9 10 10 11 11 11 11 12 12 12 12 13 13 13 13 13 13 13 13 13 13 12 12 12 13 13 13 13 12 11 11 11 11 12 13 13 13 14 15 17 18 19 20
11 11 11 11 11 11 11 11 10 10 11 10 9 9 9 9 8 7 7 6 7 7 7 7 7 7 7 7 7 8 8 8 8 9 9 9 9 9 10 10 10 10 10 9 9 9 9 9 9 9 9 10 10 10 9 9 9 8 9 9 10 11 12 13 14 13 13 12 12
11 10 10 10 10 11 11 11 10 10 10 10 9 9 8 8 7 7 6 6 6 6 6 6 6 6 6 6 6 7 7 7 7 7 8 8 8 9 9 9 9 9 8 8 7 7 7 6 6 7 7 7 7 8 7 7 7 6 6 7 8 9 10 11 10 9 8 8 6
11 11 10 10 10 10 10 10 10 10 10 10 9 9 9 9 9 8 8 7 7 6 6 6 6 6 6 6 6 7 7 7 7 8 8 8 9 9 10 10 11 11 11 10 9 9 8 7 6 6 5 5 6 6 6 6 5 5 5 5 6 7 8 8 7 7 7 9 9
11 11 10 10 10 10 10 10 10 10 10 10 10 10 10 11 11 11 11 10 10 9 8 8 8 7 7 7 7 7 7 7 7 8 8 9 9 9 10 11 12 13 13 14 14 13 12 11 9 8 7 6 5 5 5 5 5 5 4 4 5 5 5 5 5 5 5 6 8
11 11 10 10 10 9 9 9 9 9 9 10 10 10 11 12 12 12 13 13 12 11 11 10 10 9 9 8 8 8 8 7 7 7 8 8 8 9 10 11 12 13 14 15 16 16 16 16 15 13 11 9 7 6 5 5 5 5 4 4 4 4 4 4 4 4 4 4 5
12 11 10 10 9 9 9 9 9 9 9 9 9 10 11 11 12 13 13 13 12 12 11 11 11 10 10 9 8 8 8 7 7 7 7 7 8 8 9 9 10 11 12 13 15 16 18 19 19 18 17 15 12 10 8 6 5 5 4 4 4 3 3 4 4 5 5 5 5
13 11 10 10 9 8 8 8 8 8 8 8 9 10 11 11 12 12 12 12 12 11 11 10 10 9 9 9 8 8 8 8 7 7 7 7 8 8 8 8 9 10 10 11 12 14 16 17 19 20 20 19 18 15 12 9 7 5 4 3 3 3 3 3 4 4 5 6 6
13 11 10 9 8 7 7 7 7 7 7 8 8 9 10 11 11 11 11 11 11 11 10 9 9 9 9 8 8 8 8 8 8 8 8 8 8 8 8 9 9 9 10 10 11 12 13 15 16 18 19 21 21 20 18 15 11 8 6 4 3 3 2 2 3 3 4 5 6
13 11 9 8 7 6 6 6 6 6 6 7 7 8 9 9 10 10 11 11 11 11 11 10 10 9 9 9 9 9 9 9 9 9 9 8 9 9 9 9 9 9 10 10 11 11 12 13 14 16 17 19 20 21 21 19 16 13 10 7 5 3 2 2 2 3 3 5 6
14 11 8 6 6 6 5 5 5 5 5 6 6 7 7 7 8 9 9 10 10 10 11 11 11 11 10 10 10 10 10 10 10 10 9 9 9 9 9 9 9 9 10 10 10 11 12 12 13 14 15 17 19 20 21 22 20 17 14 11 8 5 4 3 3 3 3 4 5
13 10 7 6 5 5 5 5 5 5 5 5 5 5 5 6 6 6 7 8 9 10 10 11 11 11 11 11 11 11 10 10 11 10 10 10 10 10 10 10 10 10 10 10 10 11 12 12 13 13 14 15 17 19 21 22 22 20 18 15 12 9 6 5 4 4 4 5 5
12 10 8 6 5 5 4 4 4 4 4 4 4 4 4 4 4 4 5 6 7 8 10 11 12 12 12 12 12 11 11 11 11 11 11 11 11 11 11 11 11 11 11 11 11 11 12 12 13 13 14 15 16 18 20 22 22 22 20 18 15 12 9 7 6 5 5 5 6
12 10 8 6 5 4 4 3 3 3 3 3 3 3 3 3 3 3 3 4 5 7 9 10 11 12 12 12 12 12 12 11 11 11 11 10 10 11 11 11 12 12 12 12 12 12 12 13 13 13 13 14 15 17 19 21 23 23 23 21 18 15 12 10 8 7 7 7 7
13 10 8 7 6 4 3 3 3 2 2 2 2 2 2 2 2 2 2 3 4 6 8 9 11 12 12 13 12 12 12 12 11 11 10 9 9 9 10 11 12 13 13 13 13 13 13 13 13 13 13 14 14 16 18 20 22 24 24 23 20 17 14 11 10 9 8 9 9
14 12 10 8 6 4 3 2 2 1 1 1 1 1 1 1 1 1 1 2 3 5 7 8 10 11 12 13 13 12 12 11 11 10 10 9 9 8 9 9 11 12 13 14 14 15 15 15 14 14 13 13 14 15 16 19 21 23 24 24 22 19 16 13 11 10 10 10 11
16 14 11 8 6 5 3 2 1 1 1 1 1 1 1 0 0 1 1 2 3 4 5 7 9 10 11 12 13 13 12 11 10 10 9 9 8 8 8 8 9 11 12 13 15 16 16 16 15 15 14 14 13 14 15 18 20 22 23 23 22 21 18 15 13 11 11 11 12
19 15 11 9 7 5 3 2 2 1 1 1 1 0 0 0 0 0 1 1 2 3 5 6 7 8 9 11 12 12 12 11 10 9 9 9 8 8 7 7 9 10 11 13 15 16 17 17 16 16 15 15 14 14 14 16 19 21 23 23 23 21 19 16 14 13 12 12 12
21 18 14 10 7 5 4 3 2 2 1 1 0 0 0 0 0 0 0 1 2 3 4 4 5 6 8 9 10 11 11 10 9 9 9 9 8 8 7 7 8 9 11 13 15 17 18 18 17 17 16 15 15 15 14 15 18 20 22 24 23 22 19 17 15 13 13 13 13
24 21 17 12 8 6 5 4 3 2 1 0 0 0 1 1 1 1 1 1 1 2 2 2 4 5 6 7 9 10 10 9 9 8 9 9 9 8 8 8 9 10 11 13 16 17 18 19 18 18 17 16 16 15 15 15 16 19 21 23 23 22 20 17 15 13 13 13 13
25 22 19 14 10 7 6 5 4 3 1 -0 0 1 1 2 1 1 1 1 0 0 1 1 2 3 4 6 7 9 9 9 8 7 8 8 9 9 9 9 9 10 12 14 16 17 18 19 19 19 18 17 17 16 15 15 15 17 19 22 23 22 20 17 15 13 12 12 12
24 23 21 17 13 10 7 5 4 3 1 -0 -0 1 2 3 2 1 1 0 -0 -0 0 1 1 2 4 5 7 8 9 8 7 7 7 7 9 10 11 10 10 11 13 15 17 18 19 19 19 19 18 18 17 16 16 15 15 16 17 20 22 22 21 18 15 13 12 12 12
21 21 20 18 16 13 10 8 5 3 1 -0 1 1 2 2 2 1 1 1 1 0 -0 -1 -0 1 3 5 7 8 8 8 7 7 6 7 9 10 11 12 11 12 14 16 18 19 19 19 18 18 18 18 17 17 16 16 16 15 16 18 21 21 21 18 16 14 12 11 12
17 17 17 16 15 14 13 11 9 6 3 2 2 3 3 3 2 1 1 2 2 1 -0 -1 -0 2 4 5 7 8 8 8 7 6 6 7 8 10 12 12 13 14 16 18 19 19 19 19 18 17 17 17 17 16 16 17 17 17 17 17 19 20 20 18 16 14 13 12 12
12 12 11 11 10 11 13 17 17 14 10 6 5 5 5 4 3 2 2 3 3 2 2 1 2 3 5 6 7 7 8 8 7 7 7 7 8 10 12 13 14 16 17 19 20 20 19 18 17 17 16 16 16 16 17 17 18 18 18 18 18 19 18 17 16 15 13 12 12
8 8 8 8 7 8 13 22 26 25 20 13 10 8 7 5 5 5 5 5 5 5 4 5 5 6 7 7 7 6 6 7 7 7 7 7 9 10 12 14 16 17 19 20 21 20 19 18 17 16 15 15 15 16 17 18 19 19 19 19 19 18 17 16 15 14 14 13 12
7 7 8 9 7 6 7 13 19 21 20 15 12 9 7 5 6 7 7 5 6 6 6 6 7 7 7 6 6 5 6 6 7 8 8 8 9 11 13 15 17 19 20 21 20 19 18 17 16 15 15 14 15 16 17 18 19 20 21 21 19 18 16 15 14 14 14 13 14
8 8 9 10 10 8 5 2 2 4 5 6 5 5 4 4 5 5 5 4 5 6 6 7 7 7 6 5 5 5 6 6 7 8 9 10 10 12 14 16 18 20 21 21 20 19 17 17 16 15 15 14 15 15 16 17 19 20 22 22 20 17 15 14 14 13 14 14 15
10 9 9 10 11 12 11 8 4 1 -0 0 1 1 2 2 3 3 4 4 5 6 6 7 6 5 4 3 4 5 7 7 8 9 11 11 12 12 14 17 19 21 22 21 19 18 17 16 16 16 15 15 15 15 16 17 19 21 22 22 20 17 15 14 13 13 14 15 15
11 11 10 9 9 10 11 11 10 8 6 5 4 3 3 3 3 4 4 4 5 5 5 5 4 3 3 3 4 6 8 10 11 11 12 12 13 13 15 18 21 22 23 21 19 18 17 16 16 16 15 15 15 16 16 18 19 20 22 23 21 18 15 14 14 13 13 14 14
12 12 11 10 9 8 8 9 9 9 8 7 7 6 5 5 4 4 4 4 4 3 3 3 3 3 3 4 6 8 10 12 13 13 13 13 13 14 17 19 22 23 22 20 19 18 17 17 16 16 16 15 16 16 17 18 19 21 22 22 21 19 17 15 14 13 13 12 13
Height
3076 3075 3073 3072 3071 3070 3069 3068 3067 3066 3064 3063 3062 3061 3060 3059 3058 3057 3056 3055 3054 3053 3052 3052 3051 3050 3049 3048 3047 3046 3046 3045 3044 3043 3042 3041 3040 3039 3038 3037 3036 3035 3035 3034 3033 3032 3031 3030 3028 3027 3026 3026 3025 3025 3024 3024 3023 3022 3021 3019 3018 3018 3017 3015 3014 3014 3013 3012 3011
3073 3072 3070 3069 3068 3066 3065 3064 3063 3062 3060 3059 3058 3057 3056 3055 3054 3053 3052 3051 3050 3049 3048 3048 3047 3046 3045 3044 3043 3043 3042 3041 3040 3039 3038 3037 3037 3036 3035 3034 3033 3032 3031 3030 3030 3029 3028 3026 3025 3024 3023 3022 3022 3021 3021 3020 3019 3018 3017 3016 3015 3013 3012 3011 3011 3010 3009 3008 3007
3070 3068 3067 3066 3064 3063 3062 3060 3059 3058 3057 3056 3054 3053 3052 3051 3050 3049 3048 3047 3046 3045 3044 3044 3043 3042 3042 3041 3040 3039 3038 3038 3037 3036 3035 3034 3033 3033 3032 3031 3030 3029 3028 3027 3027 3025 3024 3023 3022 3020 3019 3018 3018 3018 3017 3017 3016 3014 3013 3012 3011 3009 3008 3007 3007 3006 3005 3004 3003
3067 3066 3064 3063 3061 3060 3058 3057 3056 3055 3053 3052 3051 3049 3048 3047 3046 3045 3044 3043 3043 3042 3041 3040 3040 3039 3038 3038 3037 3036 3036 3035 3034 3033 3033 3032 3031 3030 3029 3028 3027 3026 3025 3024 3023 3023 3021 3020 3018 3017 3015 3015 3014 3014 3013 3013 3012 3010 3008 3008 3007 3005 3004 3003 3003 3002 3001 3000 3000
3064 3063 3061 3060 3058 3057 3055 3054 3053 3052 3050 3049 3048 3046 3045 3044 3043 3042 3041 3040 3039 3038 3038 3037 3036 3036 3035 3035 3034 3033 3033 3032 3032 3031 3030 3029 3029 3028 3027 3026 3025 3024 3023 3022 3021 3019 3018 3017 3014 3013 3012 3011 3010 3010 3010 3009 3008 3006 3004 3003 3002 3001 3000 2999 2998 2998 2997 2996 2996
3062 3061 3059 3057 3056 3054 3053 3051 3050 3048 3047 3046 3045 3043 3042 3041 3040 3039 3038 3037 3036 3036 3035 3034 3033 3033 3032 3032 3031 3030 3030 3029 3028 3028 3027 3027 3026 3025 3024 3023 3022 3021 3020 3018 3017 3016 3015 3013 3011 3009 3008 3007 3006 3006 3006 3005 3003 3002 3000 2999 2998 2997 2996 2995 2994 2993 2993 2992 2991
3060 3058 3057 3055 3053 3052 3051 3049 3048 3046 3045 3043 3042 3041 3040 3038 3037 3036 3035 3034 3033 3033 3032 3031 3030 3030 3029 3028 3028 3027 3027 3026 3025 3024 3024 3023 3022 3022 3021 3019 3018 3017 3016 3015 3014 3012 3011 3009 3007 3005 3004 3003 3002 3002 3001 3001 2999 2998 2996 2995 2994 2993 2992 2990 2990 2989 2988 2988 2987
3058 3056 3054 3053 3052 3050 3048 3047 3046 3044 3043 3042 3040 3039 3038 3036 3035 3034 3033 3032 3031 3030 3029 3028 3028 3027 3026 3025 3024 3024 3023 3023 3022 3021 3020 3019 3018 3018 3017 3016 3015 3013 3012 3011 3010 3008 3007 3005 3003 3001 3000 2999 2998 2998 2997 2997 2995 2993 2992 2991 2990 2989 2988 2986 2986 2985 2984 2983 2983
3055 3054 3052 3051 3049 3048 3047 3045 3043 3042 3041 3039 3038 3037 3035 3034 3033 3032 3030 3029 3028 3027 3027 3026 3024 3023 3023 3022 3021 3020 3020 3019 3018 3017 3016 3015 3014 3013 3013 3012 3011 3009 3008 3007 3006 3004 3003 3001 2999 2997 2996 2996 2995 2994 2993 2992 2990 2989 2988 2987 2986 2985 2984 2983 2982 2981 2980 2979 2979
3053 3052 3050 3049 3047 3046 3044 3043 3041 3040 3039 3038 3036 3035 3033 3032 3031 3029 3028 3027 3026 3025 3024 3023 3022 3020 3019 3018 3018 3017 3016 3015 3014 3013 3012 3011 3011 3010 3009 3008 3007 3005 3004 3003 3002 3000 2998 2996 2995 2993 2993 2992 2991 2990 2989 2988 2986 2985 2984 2983 2983 2981 2980 2979 2978 2978 2977 2976 2975
3051 3049 3048 3047 3045 3043 3042 3041 3039 3038 3037 3035 3034 3033 3031 3030 3028 3027 3026 3025 3024 3023 3021 3020 3019 3018 3017 3016 3015 3013 3013 3012 3011 3009 3008 3008 3007 3006 3005 3004 3003 3002 3001 2999 2998 2996 2994 2992 2991 2990 2989 2988 2988 2986 2985 2983 2982 2981 2980 2980 2979 2978 2977 2976 2975 2974 2973 2972 2972
3049 3047 3046 3044 3043 3041 3040 3038 3037 3036 3034 3033 3032 3030 3029 3028 3026 3025 3024 3023 3021 3020 3019 3018 3016 3015 3014 3013 3012 3010 3009 3008 3007 3006 3005 3004 3003 3003 3002 3000 2999 2998 2997 2996 2994 2992 2990 2989 2988 2987 2986 2985 2984 2983 2981 2980 2979 2978 2977 2976 2976 2975 2974 2973 2973 2971 2970 2969 2968
3046 3045 3043 3042 3040 3039 3038 3036 3035 3033 3032 3031 3029 3028 3027 3026 3024 3023 3022 3020 3019 3018 3017 3015 3014 3013 3011 3010 3008 3008 3006 3005 3004 3003 3002 3001 3000 2999 2998 2997 2996 2995 2993 2992 2991 2989 2987 2985 2984 2983 2982 2981 2980 2979 2978 2977 2975 2974 2973 2973 2973 2972 2971 2971 2970 2968 2967 2966 2965
3044 3042 3041 3039 3038 3036 3035 3034 3033 3031 3030 3028 3027 3026 3025 3023 3022 3020 3019 3018 3017 3015 3014 3013 3012 3010 3008 3007 3006 3004 3003 3002 3001 2999 2998 2998 2997 2996 2994 2993 2992 2991 2990 2988 2987 2985 2983 2982 2981 2980 2979 2978 2977 2975 2974 2973 2972 2971 2970 2969 2969 2968 2968 2968 2967 2966 2964 2963 2963
3041 3039 3038 3036 3035 3034 3033 3031 3030 3028 3027 3026 3025 3023 3022 3021 3019 3018 3017 3015 3014 3013 3011 3010 3009 3007 3006 3004 3003 3002 3000 2999 2998 2996 2995 2994 2993 2992 2991 2990 2988 2987 2986 2985 2983 2982 2980 2978 2977 2976 2975 2973 2973 2972 2970 2969 2968 2967 2966 2966 2965 2965 2965 2964 2963 2963 2961 2960 2959
3038 3037 3035 3034 3032 3031 3030 3028 3027 3026 3025 3023 3022 3021 3019 3018 3017 3015 3014 3012 3011 3009 3008 3007 3006 3004 3003 3002 3000 2998 2997 2996 2994 2993 2991 2990 2989 2988 2987 2986 2985 2983 2982 2981 2979 2978 2976 2975 2973 2972 2971 2969 2968 2968 2966 2965 2964 2963 2962 2962 2962 2961 2961 2960 2960 2959 2958 2957 2957
3035 3034 3032 3031 3029 3028 3027 3026 3024 3023 3022 3021 3019 3018 3017 3015 3013 3012 3011 3009 3008 3006 3005 3004 3003 3001 3000 2998 2997 2996 2994 2992 2991 2989 2988 2987 2985 2984 2983 2982 2981 2979 2978 2977 2975 2973 2972 2971 2970 2968 2967 2965 2964 2963 2962 2961 2960 2959 2958 2958 2957 2957 2957 2956 2956 2955 2954 2953 2953
3033 3031 3029 3028 3027 3025 3024 3023 3022 3020 3019 3018 3017 3015 3014 3012 3011 3009 3008 3006 3005 3003 3002 3001 2999 2998 2997 2995 2994 2993 2991 2989 2988 2986 2985 2983 2982 2980 2979 2978 2976 2975 2974 2972 2971 2970 2968 2967 2966 2964 2962 2961 2959 2958 2957 2956 2955 2954 2954 2953 2953 2953 2953 2952 2952 2951 2950 2949 2949
3030 3028 3027 3025 3024 3023 3022 3020 3019 3018 3017 3015 3014 3013 3011 3010 3008 3007 3005 3004 3002 3001 2999 2998 2996 2995 2993 2992 2991 2989 2988 2986 2984 2983 2981 2979 2978 2976 2975 2973 2972 2971 2969 2968 2967 2965 2964 2963 2961 2960 2958 2956 2955 2953 2952 2951 2950 2950 2949 2949 2948 2948 2948 2948 2947 2947 2946 2945 2945
3027 3025 3024 3023 3021 3020 3019 3018 3016 3015 3014 3013 3011 3010 3008 3007 3006 3004 3003 3001 2999 2998 2996 2995 2993 2992 2990 2989 2988 2986 2984 2983 2981 2979 2978 2976 2974 2973 2971 2969 2968 2966 2965 2964 2962 2961 2960 2958 2957 2955 2953 2951 2950 2948 2948 2946 2945 2945 2944 2944 2943 2943 2943 2943 2943 2942 2942 2941 2941
3024 3022 3021 3019 3018 3017 3016 3015 3013 3013 3011 3010 3009 3007 3006 3004 3003 3002 3000 2998 2997 2995 2993 2992 2990 2988 2987 2986 2984 2983 2981 2980 2978 2976 2974 2973 2971 2969 2967 2965 2964 2962 2961 2959 2958 2957 2955 2953 2952 2950 2948 2947 2945 2944 2943 2942 2940 2940 2939 2938 2938 2938 2938 2938 2938 2938 2938 2937 2937
3021 3019 3018 3016 3015 3014 3013 3012 3011 3009 3008 3007 3006 3004 3003 3002 3000 2999 2997 2996 2994 2993 2991 2989 2987 2986 2984 2982 2981 2979 2978 2976 2975 2973 2971 2969 2967 2965 2963 2962 2960 2958 2957 2955 2953 2952 2950 2949 2947 2945 2943 2942 2940 2939 2938 2937 2935 2935 2934 2933 2933 2933 2933 2933 2933 2933 2933 2933 2933
3017 3016 3014 3013 3012 3011 3009 3008 3008 3007 3005 3004 3003 3002 3000 2999 2997 2996 2994 2993 2991 2990 2988 2986 2984 2983 2981 2979 2978 2976 2974 2973 2971 2969 2968 2966 2963 2962 2960 2958 2956 2954 2952 2951 2949 2947 2945 2944 2942 2940 2939 2937 2935 2934 2933 2932 2931 2929 2929 2928 2928 2928 2928 2928 2928 2929 2929 2929 2929
3014 3013 3011 3010 3009 3008 3006 3005 3004 3003 3002 3001 3000 2998 2997 2996 2994 2993 2991 2990 2988 2987 2985 2983 2981 2979 2978 2976 2974 2973 2971 2969 2967 2965 2964 2962 2960 2958 2956 2954 2952 2950 2948 2946 2945 2943 2941 2939 2937 2935 2934 2932 2931 2929 2928 2927 2926 2925 2924 2923 2923 2923 2923 2923 2924 2924 2924 2924 2924
3011 3009 3008 3007 3006 3004 3003 3002 3001 3000 2999 2998 2997 2995 2994 2992 2991 2989 2988 2987 2985 2983 2982 2980 2978 2976 2975 2973 2971 2969 2968 2965 2963 2962 2960 2958 2956 2954 2952 2950 2948 2946 2944 2942 2940 2938 2936 2934 2932 2930 2929 2928 2926 2924 2923 2922 2921 2920 2919 2918 2918 2918 2918 2918 2919 2919 2920 2920 2920
3007 3006 3005 3003 3002 3001 3000 2999 2998 2997 2996 2995 2993 2992 2991 2989 2988 2986 2985 2983 2982 2980 2978 2977 2975 2973 2971 2969 2968 2966 2964 2962 2960 2958 2956 2954 2952 2950 2948 2946 2944 2942 2940 2938 2936 2934 2932 2930 2928 2925 2924 2922 2921 2920 2918 2917 2916 2915 2914 2914 2913 2913 2913 2913 2914 2915 2915 2916 2916
3004 3003 3001 3000 2999 2998 2997 2996 2995 2993 2992 2991 2990 2988 2987 2986 2984 2983 2981 2980 2978 2977 2975 2973 2971 2970 2968 2966 2964 2963 2961 2958 2956 2954 2952 2950 2948 2946 2944 2942 2940 2938 2936 2934 2932 2930 2928 2926 2923 2921 2919 2917 2916 2914 2913 2912 2911 2910 2909 2909 2908 2908 2909 2909 2910 2911 2911 2911 2911
3001 2999 2998 2997 2996 2995 2993 2993 2991 2990 2989 2988 2986 2985 2983 2982 2981 2979 2978 2976 2975 2973 2971 2969 2968 2966 2964 2963 2961 2959 2957 2955 2953 2950 2948 2946 2944 2942 2940 2938 2936 2934 2932 2930 2928 2925 2923 2921 2919 2917 2915 2912 2910 2909 2908 2908 2907 2906 2905 2904 2904 2904 2904 2905 2906 2906 2906 2906 2906
2997 2996 2995 2994 2993 2991 2990 2989 2988 2987 2985 2984 2983 2981 2980 2978 2977 2976 2974 2973 2971 2969 2967 2965 2964 2962 2960 2958 2957 2955 2953 2951 2949 2947 2944 2942 2940 2938 2936 2934 2932 2929 2928 2926 2923 2921 2919 2917 2915 2913 2911 2909 2906 2903 2902 2902 2902 2901 2901 2900 2900 2900 2900 2901 2901 2902 2902 2902 2902
2994 2993 2992 2991 2989 2988 2987 2986 2984 2983 2982 2980 2979 2978 2976 2975 2973 2972 2971 2969 2967 2965 2963 2962 2960 2958 2956 2955 2953 2951 2949 2947 2945 2943 2940 2938 2936 2934 2932 2930 2927 2925 2923 2921 2918 2916 2914 2912 2911 2909 2907 2905 2903 2900 2898 2896 2895 2895 2896 2896 2896 2896 2897 2897 2897 2897 2898 2898 2898
2991 2990 2988 2987 2986 2985 2983 2982 2981 2979 2978 2976 2975 2974 2972 2971 2970 2968 2967 2965 2963 2961 2960 2958 2956 2954 2952 2951 2949 2947 2945 2943 2941 2939 2937 2934 2932 2930 2928 2926 2923 2921 2919 2917 2914 2912 2910 2908 2906 2904 2903 2901 2899 2896 2894 2892 2890 2889 2890 2891 2892 2893 2893 2893 2893 2893 2893 2893 2893
2988 2986 2985 2984 2982 2981 2979 2978 2977 2975 2974 2973 2971 2970 2968 2967 2966 2964 2963 2961 2959 2957 2955 2954 2952 2950 2948 2947 2945 2943 2941 2938 2937 2935 2933 2930 2928 2926 2923 2922 2919 2917 2915 2913 2910 2908 2905 2903 2902 2900 2898 2897 2895 2893 2890 2888 2886 2885 2884 2885 2887 2889 2890 2890 2890 2890 2889 2889 2889
2984 2983 2982 2980 2979 2978 2976 2975 2973 2972 2970 2968 2967 2966 2964 2963 2962 2960 2959 2957 2955 2953 2951 2949 2948 2946 2944 2942 2940 2938 2936 2934 2933 2930 2928 2926 2924 2922 2919 2917 2915 2913 2911 2908 2906 2903 2901 2899 2898 2896 2894 2893 2891 2888 2886 2885 2883 2881 2880 2880 2882 2884 2885 2886 2886 2886 2886 2886 2885
2981 2980 2978 2977 2976 2974 2973 2971 2969 2968 2966 2964 2963 2962 2961 2959 2958 2956 2954 2953 2951 2949 2947 2945 2944 2942 2940 2938 2936 2934 2932 2930 2928 2926 2924 2922 2920 2918 2915 2913 2911 2909 2907 2904 2902 2899 2897 2895 2893 2892 2890 2888 2886 2884 2883 2881 2879 2878 2876 2876 2877 2879 2881 2882 2882 2882 2882 2882 2882
2979 2978 2976 2974 2973 2972 2969 2968 2965 2963 2962 2960 2959 2958 2957 2955 2954 2952 2950 2949 2947 2945 2943 2941 2940 2938 2936 2934 2932 2930 2928 2925 2924 2922 2920 2918 2916 2913 2911 2908 2907 2905 2903 2900 2898 2895 2893 2891 2889 2887 2886 2884 2882 2880 2878 2877 2876 2874 2873 2873 2873 2874 2876 2878 2878 2878 2878 2878 2878
2977 2975 2973 2972 2970 2968 2966 2964 2962 2960 2958 2956 2955 2954 2953 2952 2950 2948 2947 2945 2943 2941 2939 2937 2935 2933 2931 2929 2927 2925 2923 2921 2919 2918 2916 2914 2911 2908 2906 2904 2902 2901 2899 2896 2893 2891 2889 2887 2885 2883 2881 2879 2878 2876 2874 2873 2872 2871 2870 2869 2869 2870 2872 2873 2874 2874 2874 2874 2874
2973 2972 2970 2968 2967 2965 2963 2961 2959 2957 2955 2953 2952 2951 2949 2948 2946 2944 2943 2941 2938 2936 2934 2933 2931 2929 2927 2925 2923 2921 2919 2917 2915 2913 2911 2909 2907 2904 2902 2899 2898 2896 2894 2892 2890 2888 2885 2883 2881 2879 2877 2875 2873 2872 2870 2869 2868 2867 2866 2866 2866 2867 2868 2869 2870 2870 2870 2871 2871
2970 2968 2967 2965 2963 2962 2960 2958 2956 2954 2952 2950 2949 2947 2946 2944 2942 2940 2938 2937 2934 2932 2929 2928 2926 2924 2923 2920 2918 2916 2914 2913 2912 2909 2907 2905 2903 2900 2897 2895 2893 2892 2890 2888 2886 2883 2881 2879 2878 2875 2873 2871 2869 2868 2866 2865 2864 2863 2863 2863 2863 2863 2864 2865 2866 2866 2867 2867 2868
2967 2965 2963 2961 2959 2958 2956 2955 2953 2951 2949 2947 2945 2943 2942 2940 2938 2936 2934 2933 2930 2928 2925 2923 2921 2920 2918 2916 2914 2912 2910 2909 2908 2905 2903 2900 2898 2896 2893 2890 2888 2887 2886 2884 2882 2879 2878 2876 2874 2872 2870 2868 2865 2864 2862 2861 2860 2859 2859 2859 2860 2860 2861 2861 2862 2862 2863 2863 2864
2964 2962 2960 2958 2956 2954 2953 2951 2949 2948 2946 2944 2942 2940 2938 2936 2934 2932 2930 2928 2926 2923 2921 2919 2917 2915 2913 2912 2909 2907 2906 2904 2903 2901 2899 2896 2894 2892 2889 2887 2884 2883 2881 2880 2878 2875 2873 2872 2870 2868 2866 2864 2862 2860 2858 2857 2856 2856 2855 2856 2856 2857 2857 2858 2858 2859 2859 2860 2861
2961 2959 2957 2955 2953 2951 2949 2947 2945 2943 2942 2940 2938 2936 2934 2932 2930 2928 2926 2924 2921 2919 2917 2915 2913 2911 2909 2907 2905 2903 2901 2900 2898 2897 2894 2892 2889 2887 2885 2883 2880 2878 2877 2876 2874 2872 2869 2868 2866 2865 2863 2861 2858 2857 2855 2854 2853 2852 2852 2853 2853 2853 2854 2854 2855 2856 2856 2857 2857